Taylorville, IL

5:09 AM CDT on August 26, 2016 (GMT -0500)
Taylorville Municipal

Weather History for KTAZ - September, 2012

Change the Weather History Date:

Saturday, September 8, 2012

  Actual Average (KSPI) Record (KSPI)
Temperature  
Mean Temperature 63 °F 70 °F  
Max Temperature 73 °F 82 °F 97 °F (1922)
Min Temperature 53 °F 58 °F 39 °F (1986)
Degree Days  
Heating Degree Days 2 1  
Month to date heating degree days 5  
Since 1 July heating degree days 10  
Cooling Degree Days 0 6  
Month to date cooling degree days 52  
Year to date cooling degree days 1022  
Growing Degree Days 13 (Base 50)    
Moisture  
Dew Point 50 °F    
Average Humidity 69    
Maximum Humidity 100    
Minimum Humidity 38    
Precipitation  
Precipitation 0.00 in 0.10 in 5.44 in (1926)
Month to date precipitation 0.77  
Year to date precipitation 26.42  
Snow  
Snow 0.00 in 0.00 in 0.00 in ()
Month to date snowfall 0.0  
Since 1 July snowfall 0.0  
Since 1 September snowfall 0.0  
Snow Depth -    
Sea Level Pressure  
Sea Level Pressure 29.94 in    
Wind  
Wind Speed 11 mph (WNW)    
Max Wind Speed 15 mph    
Max Gust Speed 21 mph    
Visibility 10 miles    
Events      
T = Trace of Precipitation, MM = Missing Value Source: NWS Daily Summary

Daily Weather History Graph

Daily Weather History Graph

Search for Another Location

Airport or City:

Trip Planner

Search our weather history database for the weather conditions in past years. The results will help you decide how hot, cold, wet, or windy it might be!

Date:

Astronomy

Sep. 08, 2012 Rise Set
Actual Time 6:32 AM CDT 7:16 PM CDT
Civil Twilight 6:05 AM CDT 7:43 PM CDT
Nautical Twilight 5:33 AM CDT 8:15 PM CDT
Astronomical Twilight 4:59 AM CDT 8:48 PM CDT
Moon No Moon Rise 2:12 PM CDT (9/8)
Length of Visible Light 13h 38m
Length of Day
12h 43m
Waning Gibbous, 48% of the Moon is Illuminated
Sep 8
Waning Gibbous
Sep 15
New
Sep 22
First Quarter
Sep 29
Full
Oct 8
Last Quarter

Hourly Weather History & Observations

Time (CDT) Temp. Dew Point Humidity Pressure Visibility Wind Dir Wind Speed Gust Speed Precip Events Conditions
12:15 AM 62.6 °F 59.0 °F 88% 29.88 in 10.0 mi NNW 15.0 mph - N/A   Mostly Cloudy
12:35 AM 60.8 °F 59.0 °F 94% 29.89 in 10.0 mi North 11.5 mph - N/A   Overcast
12:55 AM 60.8 °F 57.2 °F 88% 29.89 in 10.0 mi North 12.7 mph 18.4 mph N/A   Mostly Cloudy
1:15 AM 59.0 °F 57.2 °F 94% 29.90 in 10.0 mi NNW 11.5 mph - N/A   Clear
1:35 AM 57.2 °F 55.4 °F 94% 29.90 in 10.0 mi NNW 10.4 mph - N/A   Clear
1:55 AM 57.2 °F 55.4 °F 94% 29.90 in 10.0 mi NNW 9.2 mph - N/A   Clear
2:15 AM 57.2 °F 55.4 °F 94% 29.90 in 10.0 mi NNW 8.1 mph - N/A   Clear
2:35 AM 55.4 °F 55.4 °F 100% 29.90 in 10.0 mi NNW 9.2 mph - N/A   Clear
2:55 AM 57.2 °F 55.4 °F 94% 29.90 in 10.0 mi NW 9.2 mph - N/A   Clear
3:15 AM 55.4 °F 55.4 °F 100% 29.90 in 10.0 mi NW 9.2 mph - N/A   Clear
3:35 AM 55.4 °F 55.4 °F 100% 29.90 in 10.0 mi NW 8.1 mph - N/A   Clear
3:55 AM 55.4 °F 55.4 °F 100% 29.90 in 10.0 mi NW 8.1 mph - N/A   Clear
4:15 AM 55.4 °F 55.4 °F 100% 29.90 in 10.0 mi NW 10.4 mph - N/A   Clear
4:35 AM 55.4 °F 55.4 °F 100% 29.90 in 10.0 mi NW 12.7 mph 16.1 mph N/A   Clear
4:55 AM 55.4 °F 53.6 °F 94% 29.90 in 10.0 mi NW 9.2 mph - N/A   Clear
5:15 AM 55.4 °F 53.6 °F 94% 29.90 in 10.0 mi NW 9.2 mph - N/A   Clear
5:35 AM 55.4 °F 53.6 °F 94% 29.91 in 10.0 mi NW 9.2 mph - N/A   Clear
5:55 AM 55.4 °F 53.6 °F 94% 29.92 in 10.0 mi NW 8.1 mph - N/A   Clear
6:15 AM 53.6 °F 51.8 °F 94% 29.92 in 10.0 mi NW 9.2 mph - N/A   Clear
6:35 AM 53.6 °F 51.8 °F 94% 29.93 in 10.0 mi NW 9.2 mph - N/A   Clear
6:55 AM 53.6 °F 51.8 °F 94% 29.94 in 10.0 mi NW 9.2 mph - N/A   Clear
7:15 AM 53.6 °F 51.8 °F 94% 29.95 in 10.0 mi NW 9.2 mph - N/A   Clear
7:35 AM 55.4 °F 51.8 °F 88% 29.96 in 10.0 mi NW 12.7 mph 16.1 mph N/A   Clear
7:55 AM 55.4 °F 51.8 °F 88% 29.96 in 10.0 mi NW 11.5 mph - N/A   Clear
8:15 AM 57.2 °F 51.8 °F 82% 29.97 in 10.0 mi NNW 12.7 mph - N/A   Clear
8:35 AM 57.2 °F 51.8 °F 82% 29.98 in 10.0 mi NW 11.5 mph - N/A   Clear
8:55 AM 59.0 °F 51.8 °F 77% 29.98 in 10.0 mi NNW 12.7 mph - N/A   Clear
9:15 AM 60.8 °F 50.0 °F 68% 29.98 in 10.0 mi NNW 15.0 mph - N/A   Clear
9:35 AM 60.8 °F 51.8 °F 72% 29.99 in 10.0 mi NNW 10.4 mph - N/A   Clear
9:55 AM 62.6 °F 50.0 °F 63% 29.99 in 10.0 mi NW 11.5 mph - N/A   Clear
10:15 AM 62.6 °F 50.0 °F 63% 29.99 in 10.0 mi NNW 11.5 mph 18.4 mph N/A   Clear
10:35 AM 62.6 °F 48.2 °F 59% 29.99 in 10.0 mi NW 12.7 mph 17.3 mph N/A   Clear
10:55 AM 66.2 °F 50.0 °F 56% 30.00 in 10.0 mi NNW 15.0 mph 18.4 mph N/A   Clear
11:15 AM 64.4 °F 48.2 °F 56% 29.99 in 10.0 mi NNW 11.5 mph 20.7 mph N/A   Scattered Clouds
11:35 AM 66.2 °F 48.2 °F 52% 29.99 in 10.0 mi NNW 11.5 mph - N/A   Scattered Clouds
11:55 AM 68.0 °F 48.2 °F 49% 29.99 in 10.0 mi NW 15.0 mph - N/A   Scattered Clouds
12:15 PM 68.0 °F 46.4 °F 46% 29.98 in 10.0 mi NNW 10.4 mph 18.4 mph N/A   Scattered Clouds
12:35 PM 68.0 °F 46.4 °F 46% 29.99 in 10.0 mi West 15.0 mph - N/A   Scattered Clouds
12:55 PM 69.8 °F 46.4 °F 43% 29.98 in 10.0 mi WNW 9.2 mph 19.6 mph N/A   Scattered Clouds
1:15 PM 71.6 °F 46.4 °F 41% 29.98 in 10.0 mi WNW 11.5 mph - N/A   Scattered Clouds
1:35 PM 71.6 °F 46.4 °F 41% 29.98 in 10.0 mi NW 10.4 mph - N/A   Scattered Clouds
1:55 PM 71.6 °F 46.4 °F 41% 29.97 in 10.0 mi WNW 6.9 mph - N/A   Scattered Clouds
2:15 PM 71.6 °F 46.4 °F 41% 29.97 in 10.0 mi NW 8.1 mph 16.1 mph N/A   Clear
2:35 PM 73.4 °F 46.4 °F 38% 29.96 in 10.0 mi NW 11.5 mph 18.4 mph N/A   Clear
2:55 PM 71.6 °F 46.4 °F 41% 29.96 in 10.0 mi WNW 10.4 mph 17.3 mph N/A   Clear
3:15 PM 73.4 °F 46.4 °F 38% 29.95 in 10.0 mi NW 10.4 mph 16.1 mph N/A   Clear
3:35 PM 73.4 °F 46.4 °F 38% 29.94 in 10.0 mi NW 9.2 mph 16.1 mph N/A   Clear
3:55 PM 73.4 °F 46.4 °F 38% 29.94 in 10.0 mi NW 11.5 mph - N/A   Clear
4:15 PM 73.4 °F 46.4 °F 38% 29.93 in 10.0 mi WNW 15.0 mph - N/A   Clear
4:35 PM 71.6 °F 46.4 °F 41% 29.93 in 10.0 mi WNW 13.8 mph 19.6 mph N/A   Clear
4:55 PM 71.6 °F 46.4 °F 41% 29.93 in 10.0 mi WNW 11.5 mph - N/A   Clear
5:15 PM 71.6 °F 46.4 °F 41% 29.93 in 10.0 mi NW 11.5 mph 18.4 mph N/A   Clear
5:35 PM 71.6 °F 44.6 °F 38% 29.93 in 10.0 mi WNW 10.4 mph 18.4 mph N/A   Clear
5:55 PM 71.6 °F 46.4 °F 41% 29.92 in 10.0 mi West 6.9 mph - N/A   Clear
6:15 PM 71.6 °F 46.4 °F 41% 29.93 in 10.0 mi WNW 11.5 mph - N/A   Clear
6:35 PM 69.8 °F 46.4 °F 43% 29.92 in 10.0 mi WNW 6.9 mph - N/A   Clear
6:55 PM 68.0 °F 46.4 °F 46% 29.93 in 10.0 mi West 4.6 mph - N/A   Clear
7:15 PM 64.4 °F 46.4 °F 52% 29.93 in 10.0 mi West 5.8 mph - N/A   Clear
7:35 PM 62.6 °F 48.2 °F 59% 29.93 in 10.0 mi West 6.9 mph - N/A   Clear
7:55 PM 60.8 °F 48.2 °F 63% 29.94 in 10.0 mi West 5.8 mph - N/A   Clear
8:15 PM 59.0 °F 48.2 °F 67% 29.95 in 10.0 mi WSW 4.6 mph - N/A   Clear
8:35 PM 59.0 °F 48.2 °F 67% 29.95 in 10.0 mi WSW 4.6 mph - N/A   Clear
8:55 PM 57.2 °F 48.2 °F 72% 29.95 in 10.0 mi SW 5.8 mph - N/A   Clear
9:15 PM 57.2 °F 48.2 °F 72% 29.95 in 10.0 mi WSW 4.6 mph - N/A   Clear
9:35 PM 57.2 °F 48.2 °F 72% 29.95 in 10.0 mi SW 5.8 mph - N/A   Clear
9:55 PM 55.4 °F 48.2 °F 77% 29.94 in 10.0 mi SW 4.6 mph - N/A   Clear
10:15 PM 55.4 °F 48.2 °F 77% 29.94 in 10.0 mi SSW 5.8 mph - N/A   Clear
10:35 PM 55.4 °F 50.0 °F 82% 29.94 in 10.0 mi SSW 5.8 mph - N/A   Clear
10:55 PM 55.4 °F 50.0 °F 82% 29.94 in 10.0 mi South 6.9 mph - N/A   Clear
11:35 PM 55.4 °F 51.8 °F 88% 29.93 in 10.0 mi SSW 5.8 mph - N/A   Clear
11:55 PM 55.4 °F 50.0 °F 82% 29.92 in 10.0 mi SSW 5.8 mph - N/A   Clear